[[{"header":{"parameterUnit":"m.s-1","parameterCategory":1,"la1":30.2991,"la2":30.254,"lo1":-89.0895,"lo2":-89.0444,"dy":0.0017,"dx":0.0017,"nx":28,"ny":28,"refTime":"2025-04-18T09:00:00:Z","depth":0,"parameterNumber":2,"parameterNumberName":"U-component_of_WINDS"},"data":[0,0,0,0,0,0,0,0,0,0,0,0,0,0,0,0,0,0,0,0,0,0,0,0,0,0,0,0,0,0,0,0,0,0,0,0,0,0,0,0,0,0,0,0,0,0,0,0,0,0,0,0,0,0,0,0,0,0,-3.2426,-3.2426,0,-3.2436,-3.2436,-3.2437,-3.2436,-3.2436,-3.2436,-3.2436,-3.2445,-3.2446,-3.2446,0,0,0,0,0,0,0,0,0,0,0,0,0,-3.2402,-3.2402,-3.2426,-3.2426,-3.2426,-3.2436,-3.2436,-3.2437,-3.2436,-3.2436,-3.2436,-3.2436,-3.2445,-3.2446,-3.2446,0,0,0,0,0,0,0,0,0,0,0,0,0,-3.2412,-3.2403,-3.2426,-3.2427,-3.2427,-3.2436,-3.2436,-3.2437,-3.2436,-3.2436,-3.2436,-3.2436,-3.2445,-3.2446,-3.2446,-3.2454,0,0,-3.2448,-3.2448,0,0,0,0,0,0,0,0,-3.2412,-3.2413,-3.2427,-3.2427,-3.2427,-3.2435,-3.2432,-3.2442,-3.2436,-3.2433,-3.2436,-3.2436,-3.2442,-3.2443,-3.2445,-3.2454,-3.2455,-3.2448,-3.2448,-3.2449,-3.2449,0,0,0,0,0,0,0,-3.2411,-3.2413,-3.243,-3.2427,-3.2427,-3.2426,-3.2427,-3.2434,-3.2438,-3.2433,-3.2433,-3.2434,-3.2442,-3.2445,-3.2445,-3.2455,-3.2448,-3.2448,-3.2449,-3.2449,-3.2469,-3.2469,0,0,0,0,0,0,-3.241,-3.2412,-3.243,-3.243,-3.2419,-3.2427,-3.2428,-3.2433,-3.2438,-3.2439,-3.2435,-3.2434,-3.2444,-3.2445,-3.2446,-3.2454,-3.2449,-3.2449,-3.2449,-3.2468,-3.2469,-3.2469,0,0,0,0,0,0,-3.241,-3.2412,-3.2429,-3.2421,-3.2423,-3.2427,-3.2432,-3.2433,-3.2436,-3.244,-3.244,-3.2437,-3.2444,-3.2445,-3.2451,-3.2454,-3.2449,-3.245,-3.2468,-3.2468,-3.2469,-3.2471,0,0,0,0,0,0,-3.2409,-3.2412,-3.2416,-3.2421,-3.2424,-3.2436,-3.2433,-3.2433,-3.2437,-3.2436,-3.2442,-3.2442,-3.2443,-3.2451,-3.2452,-3.2455,-3.245,-3.2468,-3.2468,-3.2469,-3.2471,-3.2471,-3.2472,0,0,0,0,0,-3.2408,-3.2416,-3.2416,-3.2418,-3.2429,-3.2436,-3.2437,-3.2439,-3.2437,-3.244,-3.2442,-3.2442,-3.2454,-3.2451,-3.2453,-3.2456,-3.2468,-3.2468,-3.2469,-3.247,-3.2471,-3.2472,0,0,0,0,0,0,-3.2411,-3.2417,-3.2417,-3.2427,-3.2431,-3.2436,-3.244,-3.244,-3.2445,-3.2444,-3.2446,-3.2447,-3.2453,-3.2455,-3.2452,-3.2462,-3.246,-3.2461,-3.2461,-3.2462,-3.2462,-3.2461,-3.2451,0,0,0,0,0,-3.2413,-3.2419,-3.2423,-3.2431,-3.2433,-3.2436,-3.244,-3.244,-3.2445,-3.2446,-3.2449,-3.2452,-3.2456,-3.2459,-3.2463,-3.2471,-3.2471,-3.2473,-3.2474,-3.2474,-3.2475,-3.2477,-3.2477,-3.247,-3.247,-3.247,0,0,-3.2416,-3.242,-3.2424,-3.2432,-3.2435,-3.244,-3.2438,-3.2444,-3.2447,-3.2447,-3.2453,-3.2455,-3.2459,-3.2465,-3.2468,-3.2467,-3.2477,-3.2475,-3.2475,-3.2475,-3.2477,-3.2478,-3.2478,-3.247,-3.247,-3.247,0,0,-3.2425,-3.243,-3.2436,-3.2439,-3.2444,-3.2445,-3.2446,-3.2451,-3.2452,-3.2458,-3.2458,-3.2461,-3.2469,-3.2471,-3.2473,-3.248,-3.2479,-3.2481,-3.2484,-3.2486,-3.2486,-3.2487,-3.2488,-3.2489,-3.2482,-3.2482,-3.2482,0,-3.2429,-3.2438,-3.2439,-3.2445,-3.2447,-3.2447,-3.2452,-3.2455,-3.2461,-3.2462,-3.2461,-3.2469,-3.2472,-3.2477,-3.2479,-3.2481,-3.2482,-3.2481,-3.2486,-3.2487,-3.2487,-3.2489,-3.2489,-3.2482,-3.2482,-3.2482,-3.2482,0,-3.2441,-3.2447,-3.2451,-3.2456,-3.2459,-3.2465,-3.2466,-3.2469,-3.2469,-3.247,-3.2475,-3.2478,-3.2481,-3.2483,-3.2483,-3.2488,-3.2487,-3.2486,-3.2484,-3.2488,-3.2489,-3.249,-3.2482,-3.2482,-3.2482,-3.2482,0,0,-3.2453,-3.2458,-3.2459,-3.2461,-3.2465,-3.2469,-3.2473,-3.2477,-3.2478,-3.2482,-3.2484,-3.249,-3.2488,-3.249,-3.2491,-3.2492,-3.2496,-3.2491,-3.2491,-3.2491,-3.25,-3.25,-3.2501,-3.2495,-3.2495,-3.2495,-3.2499,0,-3.2462,-3.247,-3.2471,-3.2478,-3.2482,-3.2481,-3.2484,-3.2486,-3.2487,-3.249,-3.249,-3.2494,-3.2492,-3.2493,-3.2495,-3.2495,-3.2498,-3.2495,-3.2497,-3.2497,-3.2496,-3.2502,-3.2503,-3.2506,-3.25,-3.25,-3.25,0,-3.2473,-3.2476,-3.2484,-3.2486,-3.2487,-3.2491,-3.2493,-3.2496,-3.2498,-3.2498,-3.2499,-3.2499,-3.2502,-3.2499,-3.2502,-3.25,-3.2501,-3.2501,-3.2501,-3.2501,-3.2499,-3.2501,-3.2507,-3.2508,-3.2501,-3.2501,-3.2501,0,-3.248,-3.2486,-3.2491,-3.2492,-3.2494,-3.2496,-3.2497,-3.2499,-3.25,-3.2502,-3.2503,-3.2505,-3.2506,-3.2507,-3.2506,-3.2504,-3.2509,-3.2507,-3.2508,-3.2508,-3.2509,-3.2509,-3.2515,-3.251,-3.251,-3.251,-3.251,0,-3.2489,-3.2493,-3.2493,-3.2496,-3.25,-3.25,-3.2504,-3.2505,-3.2506,-3.2508,-3.2507,-3.2508,-3.2508,-3.2509,-3.2508,-3.251,-3.2511,-3.251,-3.251,-3.251,-3.251,-3.251,-3.251,-3.251,-3.251,-3.251,-3.251,0,-3.2497,-3.2497,-3.2502,-3.2504,-3.2504,-3.2507,-3.2507,-3.2509,-3.2509,-3.2512,-3.2512,-3.2512,-3.2513,-3.2513,-3.2514,-3.2514,-3.2516,-3.2515,-3.2515,-3.2515,-3.2516,-3.2516,-3.2522,-3.2523,-3.2518,-3.2518,-3.2518,0,-3.2503,-3.2506,-3.2507,-3.2508,-3.2509,-3.2512,-3.2513,-3.2512,-3.2513,-3.2514,-3.2516,-3.2517,-3.2518,-3.252,-3.2519,-3.252,-3.2519,-3.2521,-3.2519,-3.2518,-3.2518,-3.2517,-3.2517,-3.2521,-3.2521,-3.2521,-3.2521,0,-3.2512,-3.2511,-3.2514,-3.2515,-3.2517,-3.2518,-3.2519,-3.252,-3.2519,-3.252,-3.2521,-3.2522,-3.2523,-3.2523,-3.2524,-3.2523,-3.2522,-3.2522,-3.2522,-3.2522,-3.2522,-3.2521,-3.2516,-3.2522,-3.2522,-3.2522,-3.2522,-3.2522,-3.2518,-3.252,-3.2521,-3.2523,-3.2523,-3.2524,-3.2525,-3.2525,-3.2526,-3.2527,-3.2526,-3.2527,-3.2527,-3.2527,-3.2527,-3.2527,-3.2526,-3.2526,-3.2526,-3.2526,-3.2526,-3.2522,-3.2527,-3.2527,-3.2527,-3.2527,-3.2527,0,-3.2526,-3.2526,-3.2528,-3.2529,-3.253,-3.2529,-3.2529,-3.253,-3.2531,-3.2531,-3.2531,-3.2532,-3.2532,-3.2531,-3.2531,-3.2531,-3.253,-3.2531,-3.2531,-3.253,-3.2528,-3.2527,-3.2531,-3.2531,-3.2531,-3.2531,-3.2531,-3.2531,-3.2531,-3.2534,-3.2533,-3.2535,-3.2535,-3.2536,-3.2537,-3.2537,-3.2536,-3.2537,-3.2537,-3.2537,-3.2535,-3.2535,-3.2534,-3.2534,-3.2534,-3.2534,-3.2534,-3.2531,-3.2531,-3.253,-3.253,-3.2535,-3.2535,-3.2536,-3.2536,-3.2536]},{"header":{"parameterUnit":"m.s-1","parameterCategory":1,"la1":30.2991,"la2":30.254,"lo1":-89.0895,"lo2":-89.0444,"dy":0.0017,"dx":0.0017,"nx":28,"ny":28,"refTime":"2025-04-18T09:00:00:Z","depth":0,"parameterNumber":3,"parameterNumberName":"V-component_of_WINDS"},"data":[0,0,0,0,0,0,0,0,0,0,0,0,0,0,0,0,0,0,0,0,0,0,0,0,0,0,0,0,0,0,0,0,0,0,0,0,0,0,0,0,0,0,0,0,0,0,0,0,0,0,0,0,0,0,0,0,0,0,4.1167,4.1168,0,4.1223,4.1223,4.1224,4.1191,4.1189,4.1187,4.1186,4.1241,4.1244,4.1247,0,0,0,0,0,0,0,0,0,0,0,0,0,4.1032,4.1034,4.1167,4.1168,4.1169,4.1223,4.1224,4.1224,4.1191,4.1189,4.1187,4.1185,4.124,4.1244,4.1247,0,0,0,0,0,0,0,0,0,0,0,0,0,4.1089,4.1035,4.1167,4.1159,4.1158,4.1223,4.1224,4.1224,4.1191,4.1189,4.1187,4.1184,4.1239,4.1244,4.1248,4.1323,0,0,4.1261,4.1263,0,0,0,0,0,0,0,0,4.1086,4.1094,4.1159,4.1159,4.1159,4.1197,4.1196,4.1257,4.1192,4.1179,4.1186,4.1183,4.1229,4.1234,4.1249,4.1326,4.1328,4.1262,4.1265,4.1266,4.1268,0,0,0,0,0,0,0,4.1082,4.1092,4.1189,4.116,4.116,4.1152,4.1157,4.1207,4.1216,4.118,4.1178,4.1185,4.1228,4.1245,4.125,4.1329,4.1262,4.1266,4.1268,4.127,4.1471,4.1474,0,0,0,0,0,0,4.1079,4.1089,4.1187,4.1191,4.1116,4.1156,4.1162,4.1188,4.1216,4.1218,4.1187,4.1183,4.1239,4.1245,4.1252,4.1343,4.1266,4.1271,4.1273,4.1468,4.1472,4.1474,0,0,0,0,0,0,4.1076,4.1088,4.1185,4.1139,4.1151,4.1161,4.119,4.119,4.1207,4.1221,4.1222,4.1202,4.1237,4.1246,4.1306,4.1345,4.1273,4.1277,4.1465,4.1469,4.1473,4.1525,0,0,0,0,0,0,4.1072,4.1087,4.1116,4.114,4.1154,4.1239,4.1192,4.1193,4.1215,4.1211,4.1236,4.1238,4.1236,4.13,4.1311,4.1349,4.128,4.1462,4.1467,4.1472,4.152,4.1531,4.154,0,0,0,0,0,4.1068,4.1128,4.1118,4.113,4.119,4.1241,4.1249,4.1245,4.1218,4.1247,4.1256,4.1237,4.1338,4.1306,4.1318,4.1359,4.1459,4.1466,4.1471,4.1516,4.1529,4.1539,0,0,0,0,0,0,4.1107,4.1131,4.112,4.119,4.1214,4.1235,4.1272,4.1259,4.129,4.1285,4.1279,4.1285,4.1348,4.1359,4.1323,4.1434,4.1395,4.1403,4.1424,4.1437,4.1446,4.1442,4.1284,0,0,0,0,0,4.1124,4.1164,4.1182,4.1242,4.1255,4.1262,4.1284,4.1279,4.1303,4.1313,4.1327,4.1351,4.1388,4.1413,4.1448,4.1521,4.1527,4.1555,4.1565,4.1573,4.1581,4.1622,4.1635,4.1494,4.1494,4.1494,0,0,4.116,4.1178,4.1203,4.1251,4.1269,4.1311,4.127,4.1315,4.1346,4.132,4.1378,4.1389,4.1415,4.1483,4.1513,4.1494,4.1621,4.1581,4.1587,4.159,4.1629,4.1643,4.1654,4.1498,4.1498,4.1497,0,0,4.1246,4.1263,4.1315,4.1335,4.1363,4.1367,4.138,4.1403,4.141,4.1468,4.145,4.1486,4.155,4.157,4.1589,4.1683,4.1667,4.1695,4.1745,4.1785,4.1797,4.1806,4.1841,4.1854,4.1702,4.1702,4.1702,0,4.1286,4.1348,4.1344,4.1391,4.1413,4.1392,4.1445,4.1464,4.1502,4.1518,4.1495,4.1576,4.1592,4.1665,4.1689,4.1704,4.1718,4.1692,4.1795,4.1805,4.1814,4.1847,4.186,4.1706,4.1705,4.1705,4.1705,0,4.1397,4.1441,4.148,4.1518,4.1544,4.1594,4.1597,4.1624,4.1618,4.1624,4.1684,4.1703,4.1742,4.1759,4.1752,4.1831,4.1818,4.1796,4.1757,4.1831,4.1862,4.1875,4.171,4.1709,4.1708,4.1707,0,0,4.151,4.1546,4.1561,4.1578,4.1608,4.1642,4.1691,4.173,4.1753,4.178,4.1822,4.1877,4.1857,4.1878,4.1873,4.1908,4.1984,4.1882,4.1882,4.1901,4.2073,4.209,4.2105,4.1973,4.1975,4.1977,4.2071,0,4.1599,4.1686,4.1684,4.1764,4.1805,4.1786,4.1829,4.1852,4.1859,4.1894,4.1902,4.1942,4.1911,4.1924,4.1958,4.1967,4.2018,4.196,4.2012,4.2014,4.2007,4.2121,4.214,4.2228,4.2083,4.2085,4.2087,0,4.1714,4.1746,4.1832,4.1857,4.1874,4.1912,4.1948,4.1982,4.2008,4.2011,4.2035,4.2025,4.2075,4.2034,4.2103,4.2064,4.2085,4.2093,4.2096,4.2101,4.2056,4.2131,4.2255,4.2269,4.2105,4.2104,4.2103,0,4.179,4.1854,4.1914,4.1929,4.1959,4.1987,4.2001,4.2025,4.2048,4.208,4.2095,4.2131,4.2152,4.218,4.218,4.215,4.2251,4.2209,4.2255,4.2255,4.2278,4.2276,4.2408,4.2289,4.2289,4.2289,4.2288,0,4.189,4.1943,4.1948,4.1985,4.2044,4.2041,4.2099,4.211,4.2132,4.217,4.2155,4.2191,4.2189,4.2226,4.2226,4.2284,4.2293,4.2297,4.2296,4.2299,4.2299,4.2313,4.2308,4.2292,4.2291,4.2291,4.229,0,4.1985,4.199,4.2054,4.2078,4.2085,4.2128,4.2148,4.2183,4.2189,4.2238,4.2249,4.2259,4.2302,4.2304,4.2353,4.2354,4.2424,4.2416,4.2416,4.2415,4.2461,4.2457,4.2608,4.2628,4.2495,4.2496,4.2497,0,4.2049,4.209,4.2119,4.2144,4.216,4.22,4.2225,4.2223,4.2249,4.2282,4.2313,4.2355,4.2388,4.2457,4.2468,4.2505,4.2499,4.2549,4.2505,4.2506,4.2502,4.25,4.2504,4.2558,4.256,4.2561,4.2562,0,4.2164,4.2165,4.2201,4.2239,4.2269,4.2299,4.2326,4.2347,4.2349,4.2379,4.2423,4.2449,4.2499,4.2541,4.2578,4.2591,4.2578,4.2576,4.2589,4.2592,4.2591,4.2594,4.2441,4.2573,4.2572,4.2571,4.257,4.257,4.2246,4.2282,4.2308,4.235,4.237,4.2397,4.2431,4.2442,4.2479,4.252,4.2517,4.2566,4.2591,4.2639,4.2655,4.2694,4.2677,4.2695,4.27,4.2705,4.271,4.2584,4.27,4.27,4.2699,4.2699,4.2699,0,4.2361,4.2377,4.2415,4.2455,4.2487,4.2472,4.2501,4.253,4.2573,4.2598,4.2631,4.2682,4.2723,4.2737,4.2776,4.2804,4.2799,4.2814,4.2813,4.2817,4.2722,4.2708,4.2818,4.2818,4.2818,4.2818,4.2818,4.2818,4.2425,4.2485,4.2489,4.256,4.2575,4.2623,4.2642,4.2666,4.2686,4.2744,4.2778,4.2787,4.2808,4.2848,4.2885,4.2888,4.2904,4.2923,4.2923,4.2835,4.2823,4.2812,4.2798,4.2926,4.2926,4.3014,4.3015,4.3016]}]]